Location: Bouillancy
(49.1149°N, 2.9308°E)
Time: 07:11:43
(UTC+00:00)

SJ-6B - Pass Details

Date: 30 September 2020
Orbit: 511 x 580 km, 97.6° (Epoch: 30 October)

Event Time Altitude Azimuth Distance (km) Brightness Sun altitude
Exits shadow 19:51:06 51° 225° (SW) 667 3.3 -23.6°
Maximum altitude 19:51:37 56° 260° (W) 630 3.3 -23.7°
Drops below altitude 10° 19:55:26 10° 339° (NNW) 1,800 6.0 -24.3°
Sets 19:57:37 0° 344° (NNW) 2,708 6.9 -24.6°
